Location: Vancouver
(49.2500°N, 123.1330°W)
Time: 05:48:05
(UTC-08:00)

ERS-2 - Visible Passes

Search period start: 23 January 2018 00:00
Search period end: 02 February 2018 00:00
Orbit: 500 x 503 km, 98.6° (Epoch: 23 January)

Date Brightness Start Highest point End Pass type
(mag) Time Alt. Az. Time Alt. Az. Time Alt. Az.
23 Jan 4.9 07:10:08 10° NE 07:13:12 24° E 07:16:15 10° SSE visible
23 Jan 3.1 17:52:14 10° ESE 17:55:21 26° ENE 17:58:30 10° N visible
23 Jan 4.2 19:25:45 10° SSW 19:28:58 28° W 19:32:12 10° NW visible
24 Jan 5.4 06:51:36 10° NE 06:53:50 15° E 06:56:04 10° SE visible
24 Jan 3.6 17:33:50 10° ESE 17:36:20 17° ENE 17:38:50 10° NNE visible
24 Jan 3.2 19:06:07 10° S 19:09:40 46° W 19:13:16 10° NNW visible
25 Jan 2.2 18:46:46 10° SSE 18:50:26 79° WSW 18:54:09 10° NNW visible
26 Jan 2.1 18:27:37 10° SSE 18:31:16 61° ENE 18:34:55 10° N visible
26 Jan 5.5 20:03:41 10° WSW 20:05:19 12° W 20:06:56 10° WNW visible
27 Jan 2.7 18:08:43 10° SE 18:12:08 36° ENE 18:15:34 10° N visible
27 Jan 4.8 19:43:09 10° SW 19:45:55 20° W 19:48:42 10° NW visible
28 Jan 5.2 07:07:56 10° NE 07:10:49 21° E 07:13:42 10° SSE visible
28 Jan 3.3 17:50:04 10° ESE 17:53:03 23° ENE 17:56:02 10° N visible
28 Jan 4.0 19:23:15 10° SSW 19:26:35 32° W 19:29:57 10° NNW visible
29 Jan 5.5 06:49:33 10° ENE 06:51:27 13° E 06:53:19 10° ESE visible
29 Jan 2.9 19:03:41 10° S 19:07:18 53° WSW 19:10:57 10° NNW visible
30 Jan 2.0 18:44:23 10° SSE 18:48:04 89° ENE 18:51:48 10° NNW visible
31 Jan 2.2 18:25:18 10° SSE 18:28:53 53° ENE 18:32:31 10° N visible
31 Jan 5.3 20:00:49 10° SW 20:02:52 14° W 20:04:55 10° WNW visible
01 Feb 2.8 18:06:27 10° SE 18:09:46 32° ENE 18:13:06 10° N visible
01 Feb 4.6 19:40:32 10° SSW 19:43:29 22° W 19:46:28 10° NW visible
